This demonstration page uses our WeatherBlox Daily Observations layout. Learn more.

Left ArrowRight Arrow

34.74481, -87.66753

Hourly Observations for December 8, 2017

Temp ( °F °C ) Dew Point ( °F °C ) Humidity (%) Winds ( mph kmh ) Pressure ( in mb ) Visibility ( mi km ) Precip ( " mm )
12:53 am 00:53 Mostly Clear 34 1.1 21 -6.1 59 59 NNE 10 17 30.20 1023 10 16 0.00 0.00
1:53 am 01:53 Mostly Clear 33 0.6 21 -6.1 61 61 NNE 9 15 30.20 1023 10 16 0.00 0.00
2:53 am 02:53 Clear 32 0 20 -6.7 61 61 NNE 10 17 30.17 1022 10 16 0.00 0.00
3:53 am 03:53 Mostly Cloudy 32 0 20 -6.7 61 61 NNE 8 13 30.18 1022 10 16 0.00 0.00
4:53 am 04:53 Mostly Cloudy 31 -0.6 20 -6.7 64 64 NNE 10 17 30.16 1021 10 16 0.00 0.00
5:53 am 05:53 Clear 31 -0.6 20 -6.7 64 64 NE 10 17 30.15 1021 10 16 0.00 0.00
6:53 am 06:53 Mostly Cloudy 31 -0.6 20 -6.7 64 64 NE 8 13 30.18 1022 10 16 0.00 0.00
7:53 am 07:53 Mostly Cloudy 31 -0.6 20 -6.7 64 64 ENE 8 13 30.17 1022 10 16 0.00 0.00
8:53 am 08:53 Sunny 32 0 20 -6.7 61 61 NE 10 17 30.17 1022 10 16 0.00 0.00
9:53 am 09:53 Mostly Cloudy 33 0.6 19 -7.2 56 56 NNE 6 9 30.19 1023 10 16 0.00 0.00
10:53 am 10:53 Sunny 34 1.1 20 -6.7 56 56 ENE 9 15 30.13 1020 10 16 0.00 0.00
11:53 am 11:53 Cloudy 36 2.2 18 -7.8 48 48 N 6 9 30.11 1020 10 16 0.00 0.00
12:53 pm 12:53 Cloudy 36 2.2 17 -8.3 46 46 N 8 13 30.07 1018 10 16 0.00 0.00
1:53 pm 13:53 Cloudy 36 2.2 17 -8.3 46 46 N 5 7 30.06 1018 10 16 0.00 0.00
2:53 pm 14:53 Cloudy 36 2.2 15 -9.4 42 42 N 8 13 30.06 1018 10 16 0.00 0.00
3:53 pm 15:53 Cloudy 36 2.2 15 -9.4 42 42 NNE 9 15 30.05 1018 10 16 0.00 0.00
4:53 pm 16:53 Cloudy 36 2.2 15 -9.4 42 42 N 5 7 30.06 1018 10 16 0.00 0.00
5:53 pm 17:53 Clear 36 2.2 15 -9.4 42 42 NNE 7 11 30.06 1018 10 16 0.00 0.00
6:53 pm 18:53 Clear 35 1.7 16 -8.9 46 46 Calm 30.07 1018 10 16 0.00 0.00
7:53 pm 19:53 Cloudy 35 1.7 16 -8.9 46 46 VRB 5 7 30.06 1018 10 16 0.00 0.00
8:53 pm 20:53 Clear 34 1.1 16 -8.9 48 48 N 5 7 30.07 1018 10 16 0.00 0.00
9:53 pm 21:53 Clear 33 0.6 17 -8.3 52 52 NNW 5 7 30.06 1018 10 16 0.00 0.00
10:53 pm 22:53 Clear 29 -1.7 18 -7.8 63 63 WNW 7 11 30.10 1019 10 16 0.00 0.00
11:53 pm 23:53 Clear 29 -1.7 20 -6.7 69 69 Calm 30.07 1018 10 16 0.00 0.00

Powered by AerisWeather